Logan - 24 Hour Table
Date & TimeSolar
Radiation
(W/m²)
Wind
Speed
(mph)
Wind
Direction
(degrees)
Air
Temperature
(°F)
Relative
Humidity
(%)
Precipitation
(inches)
Barometric
Pressure
(inHg)
2019/12/15 17:00 12 0.4 92 18.4 92 0.00 30.03
2019/12/15 16:00 59 3.0 318 18.9 92 0.00 30.01
2019/12/15 15:00 143 2.5 307 21.0 93 0.00 29.99
2019/12/15 14:00 206 1.0 326 22.7 94 0.00 29.98
2019/12/15 13:00 205 0.5 331 20.4 95 0.00 29.98
2019/12/15 12:00 209 0.4 298 18.9 94 0.00 29.98
2019/12/15 11:00 202 0.4 307 17.1 96 0.00 29.99
2019/12/15 10:00 97 0.8 234 13.3 94 0.00 29.97
2019/12/15 09:00 17 0.4 171 12.4 94 0.00 29.94
2019/12/15 08:00 0 0.9 41 10.1 93 0.00 29.92
2019/12/15 07:00 0 1.5 77 10.7 94 0.00 29.90
2019/12/15 06:00 0 1.7 200 11.9 93 0.00 29.89
2019/12/15 05:00 0 0.5 202 11.1 94 0.00 29.90
2019/12/15 04:00 0 0.7 297 8.8 95 0.00 29.90
2019/12/15 03:00 0 0.7 350 10.1 93 0.00 29.91
2019/12/15 02:00 0 1.6 337 9.5 93 0.00 29.91
2019/12/15 01:00 0 0.3 355 15.9 95 0.00 29.91
2019/12/15 00:00 0 0.7 90 20.3 96 0.00 29.92
2019/12/14 23:00 0 1.0 176 21.1 97 0.00 29.92
2019/12/14 22:00 0 0.9 298 23.5 96 0.00 29.92
2019/12/14 21:00 0 0.8 191 26.1 94 0.00 29.92
2019/12/14 20:00 0 0.4 301 27.8 93 0.00 29.92
2019/12/14 19:00 0 0.3 202 28.7 91 0.00 29.92
2019/12/14 18:00 0 2.2 221 27.7 90 0.00 29.91